Location: Most
(50.5133°N, 13.6207°E)
Time: 20:14:28
(UTC+01:00)

SEEDS - Pass Details

Date: 02 December 2021
Orbit: 584 x 600 km, 97.6° (Epoch: 23 January)

Event Time Altitude Azimuth Distance (km) Brightness Sun altitude
Rises 05:00:06 0° 11° (N) 2,825 ? -25.4°
Reaches altitude 10° 05:02:17 10° 9° (N) 1,919 ? -25.0°
Enters shadow 05:03:03 15° 8° (N) 1,603 ? -24.9°
